Regional Weather Roundup
Issued by NWS

Home | Current Version | Previous Version | Text Only | Print | Product List | Glossary Off
Versions: 1 2 3 4 5 6 7 8 9 10 11 12 13 14 15 16 17 18 19 20 21 22 23 24 25 26 27

000
ASUS45 KBOU 220107
RWRCO

WEATHER ROUNDUP FOR COLORADO
NATIONAL WEATHER SERVICE DENVER/BOULDER CO
700 PM MDT MON AUG 21 2017

NOTE: "FAIR" INDICATES FEW OR NO CLOUDS BELOW 12000 FEET WITH NO
SIGNIFICANT WEATHER AND/OR OBSTRUCTIONS TO VISIBILITY.

COZ001>005-013-030-031-220200-
...NORTHWEST COLORADO...

CITY           SKY/WX    TMP DP  RH WIND       PRES   REMARKS
CRAIG          FAIR      85  28  12 CALM      30.20F
HAYDEN         FAIR      81  32  17 N5        30.25S
MEEKER         FAIR      85  29  13 N6        30.21F
RABBIT EARS PA FAIR      61  32  33 MISG      30.57S
STEAMBOAT SPGS FAIR      80  30  16 W7        30.26R
WALDEN         FAIR      73  28  19 NE7       30.38F
$$

COZ006>008-011-220200-
...WEST CENTRAL VALLEYS...

CITY           SKY/WX    TMP DP  RH WIND       PRES   REMARKS
GRAND JUNCTION FAIR      90  35  14 NW13      30.07S
MONTROSE       CLOUDY    76  45  33 E23G33    30.20R
EAGLE          FAIR      81  34  18 SW6       30.24S
RIFLE          FAIR      87  34  15 CALM      30.14R
DELTA          LGT RAIN  87  43  21 NW22G28   30.13R
NUCLA          FAIR      81  36  19 NW9       30.21S
$$

COZ017>023-064>068-220200-
...SOUTHWEST COLORADO...

CITY           SKY/WX    TMP DP  RH WIND       PRES   REMARKS
DURANGO        LGT RAIN  64  49  57 NW20G26   30.30R
CORTEZ         LGT RAIN  65  57  75 E14       30.24R
PAGOSA SPRINGS RAIN      60  50  68 N7        30.36R
TELLURIDE      PTSUNNY   63  39  42 E10G17    30.47R
WOLF CREEK PAS RAIN      41  41 100 N9G22     30.72R
$$

COZ009-010-012-014-032>034-037-058>063-220200-
...CENTRAL COLORADO...

CITY           SKY/WX    TMP DP  RH WIND       PRES   REMARKS
ASPEN          FAIR      69  41  36 SE13G20   30.34R
BUENA VISTA    CLOUDY    59  46  61 SE10G22   30.45R
COPPER MTN     FAIR      54  36  50 S12       30.69S
BERTHOUD PASS  FAIR      43  37  81 SE16G22   30.71S
COTTONWOOD PAS CLOUDY    55  43  62 SE12G24   30.56R
GUNNISON       FAIR      67  45  45 E7        30.39R
KREMMLING      MOCLDY    81  21  11 NE10      30.31R
LEADVILLE      FAIR      56  37  49 E3        30.53S
SALIDA         CLOUDY    59  52  78 NW9       30.49R
SUNLIGHT       FAIR      54  32  43 N3        30.60S
WILKERSON PASS CLOUDY    50  34  53 NE3       30.68R
$$

COZ069>075-220200-
...SAN LUIS VALLEY/SANGRE DE CRISTO MOUNTAINS...

CITY           SKY/WX    TMP DP  RH WIND       PRES   REMARKS
ALAMOSA        CLOUDY    68  40  35 N6        30.33R
DEL NORTE      LGT RAIN  56  50  79 W7        30.45R
LA VETA PASS   NOT AVBL
SAGUACHE         N/A     57  52  82 N6        30.42R
$$

COZ035-036-038>040-220200-
...NORTHERN COLORADO FRONT RANGE...

CITY           SKY/WX    TMP DP  RH WIND       PRES   REMARKS
DENVER INTL AP MOCLDY    80  47  31 NE10      30.20R
DMNS CITY PARK   N/A     80  38  22 NE3G10    30.19S
AURORA         MOCLDY    78  48  34 NE7       30.22S
FRONT RANGE AP FAIR      79  50  36 E13       30.22R
ERIE MUNI ARPT FAIR      81  39  22 NE5       30.23R
BOULDER MUN AP FAIR      81  39  22 CALM      30.19S
CENTENNIAL     MOCLDY    78  40  25 N9        30.23S
BROOMFIELD     FAIR      81  41  24 CALM      30.23S
FORT COLLINS   FAIR      80  52  37 E13       30.18S
LONGMONT       FAIR      80  47  31 E5        30.20R
$$

COZ041-046-047-076>085-087-088-220200-
...PIKES PEAK/PALMER DIVIDE AND SOUTHERN FOOTHILLS...

CITY           SKY/WX    TMP DP  RH WIND       PRES   REMARKS
COLO. SPRINGS  MOCLDY    76  44  32 NE9       30.26R
A. F. ACADEMY  FAIR      74  39  28 N9        30.28R
SCHRIEVER AFB  FAIR      73  44  35 N8        30.26R
CHEYENNE MTN   MOCLDY    73  37  27 NW8       30.27R
ELLICOTT       FAIR     N/A N/A N/A NE9       30.24R
FALCON         FAIR      71  42  35 NE5       30.32R
FORT CARSON    FAIR      75  44  33 NE8       30.22R
LIMON          FAIR      78  52  40 NE16      30.19R
MONUMENT HILL  FAIR      68  43  40 N6        30.34R
CANON CITY     CLOUDY    70  55  60 W9        30.22R
WALSENBURG     FAIR      77  45  31 N28G38    30.25R
TRINIDAD       FAIR      79  46  31 NE9       30.17R
$$

COZ042>045-048>051-090-091-220200-
...NORTHEAST COLORADO...

CITY           SKY/WX    TMP DP  RH WIND       PRES   REMARKS
GREELEY ARPT   FAIR      78  52  40 E7        30.17R
AKRON          FAIR      77  55  46 NE13      30.15R
BURLINGTON     FAIR      81  67  62 N14       30.09R
WRAY           NOT AVBL
YUMA           FAIR      77  48  36 N10       30.11R
STERLING       FAIR      79  52  38 NE8       30.11R
HOLYOKE        FAIR      81  63  54 N15       30.09R
FORT MORGAN    FAIR      78  45  30 NE10      30.16R
$$

COZ086-089-092>099-220200-
...SOUTHEAST COLORADO...

CITY           SKY/WX    TMP DP  RH WIND       PRES   REMARKS
PUEBLO         FAIR      86  44  23 N10       30.12R
LA JUNTA       FAIR      84  56  38 E5        30.06R
LAMAR          FAIR      82  58  43 S8        30.00S
SPRINGFIELD      N/A     78  62  57 S10       30.09R
$$




USA.gov is the U.S. government's official web portal to all federal, state and local government web resources and services.